CUBESX-SIRIUS-HSE (47951 NORAD) Tracking and Keplerian Element Data

This shows tracking and keplerian element data for the satellite.

Feedback or suggestion? Click here.




ElementValue
Catalog47951
NameCUBESX-SIRIUS-HSE
Epoch Orbit1371
Epoch Day172.84250079
Epoch Year2021
RAAN74.9102
Inclination97.559
Eccentricity0.0020497
Argument of Perigee298.5904
Mean Anonmoly126.6216
Mean Motion15.05669737
Decay Rate-1.27E-06
L11 47951U 21022V 21172.84250079 -.00000127 00000-0 -44456-5 0 9991
L22 47951 97.5590 74.9102 0020497 298.5904 126.6216 15.05669737 13710

Live tracking and technical data element details for CUBESX-SIRIUS-HSE (NORAD 47951). CUBESX-SIRIUS-HSE can be tracked NOW for your location showing map with azimuth and elevation plus other details from your city location.

Track the satellite on the map from your city or location and see movement details for azimuth, elevation, latitude, longitude, range, height, and movement on the map or in text.







IsCatalogInMostPopularTable: catalog: 47951, numindb: 41
Update: records affected: 1



GetName: 47951 CUBESX-SIRIUS-HSE

Hit Count: updated at: Thu, 24 Jun 2021 02:13:40 GMT